Theta_e
298 297 297 297 297 297 297 297 296 296 295 295 295 295 295 295 294 294 294 293 293 293 292 291 291 290 290 290 290 290 290 290 289 289 289 289 288 288 288 288 287 287 287 287 287 287 286 287 287 286 286 286 286 285 285 284 284 284 284 284 284 283 283 283 282 283 284 284 284 284 284 284 284 284 284 284 284 284 284 284 284 284 284 284 284
298 297 297 297 297 297 297 297 296 295 295 295 295 295 295 294 294 294 293 293 292 292 291 291 290 290 289 289 289 289 289 289 289 289 289 288 288 288 288 288 287 287 287 287 286 286 286 286 286 286 286 285 285 284 284 284 284 284 284 283 283 283 283 283 282 283 284 284 284 284 284 284 284 284 283 283 283 283 283 283 283 283 283 283 284
297 297 297 297 297 296 296 296 295 295 295 295 295 295 294 294 293 293 293 292 292 291 290 290 289 289 289 289 289 289 289 289 289 289 288 288 288 288 288 288 287 287 287 287 286 286 286 286 286 285 285 285 284 284 284 284 283 283 283 283 283 283 283 282 282 283 283 284 284 284 283 283 283 283 283 283 283 282 283 283 283 283 283 283 283
297 297 296 296 296 296 295 295 295 295 295 295 294 294 293 293 293 292 292 291 291 290 290 289 289 289 289 289 289 289 289 289 289 288 288 288 288 288 288 288 287 287 287 287 286 286 286 286 285 285 284 284 283 283 283 283 283 283 283 283 283 283 283 283 282 282 282 283 284 283 283 282 282 282 282 282 282 282 282 282 282 283 283 283 282
296 296 296 296 296 295 295 294 294 294 294 294 293 293 292 292 292 292 291 291 290 290 289 289 289 289 289 289 289 289 289 288 288 288 288 288 288 288 288 288 287 287 287 287 286 286 286 285 285 284 283 283 283 283 283 283 283 283 283 283 283 283 283 283 282 282 282 282 283 283 282 282 282 282 281 281 281 282 282 282 282 282 282 282 282
296 296 295 296 295 295 295 294 294 293 293 292 292 292 292 291 291 291 290 290 289 289 289 288 288 288 289 289 289 289 289 289 288 288 288 288 288 288 288 288 288 287 287 287 286 286 285 285 285 284 283 283 283 283 283 283 283 283 283 283 283 283 283 282 282 282 282 282 282 282 282 281 281 282 282 281 280 281 281 281 281 281 281 281 282
296 295 295 295 295 295 294 294 293 293 292 291 291 291 291 290 290 290 290 289 289 288 288 288 288 288 289 289 289 289 289 289 288 288 288 288 288 288 288 288 288 287 287 287 286 286 285 285 284 283 283 283 283 283 283 283 283 283 283 282 282 282 282 282 282 282 281 281 281 281 281 281 281 281 281 281 280 280 279 279 280 280 280 280 281
296 295 295 295 295 295 294 293 292 291 291 291 291 290 290 290 290 289 289 289 288 288 288 288 288 289 289 289 289 289 289 289 289 288 288 288 288 288 288 288 288 287 287 287 286 285 285 284 283 283 282 282 282 283 282 282 282 282 282 282 282 282 282 282 281 281 281 281 281 281 281 281 281 281 281 280 280 279 279 278 278 279 279 279 280
296 295 295 295 295 294 293 292 291 291 290 290 290 290 290 290 289 289 289 288 288 288 288 288 288 289 289 289 289 289 289 289 289 288 288 288 288 288 288 287 287 287 287 287 286 285 285 284 283 282 282 282 282 282 282 282 282 282 282 282 282 281 281 281 280 280 280 280 280 280 280 280 280 280 280 280 279 278 278 277 277 278 278 278 279
295 295 295 295 295 294 292 291 291 290 290 290 290 290 289 289 289 288 288 288 288 288 288 288 288 289 289 289 289 289 288 288 288 288 288 288 288 287 287 287 287 287 287 286 285 285 285 284 283 282 282 282 282 282 282 282 282 282 281 281 281 280 280 280 280 279 279 279 279 279 279 280 280 279 279 279 278 277 277 277 277 277 277 277 278
295 296 295 295 294 293 292 291 291 290 291 291 290 289 289 288 288 288 288 288 288 288 288 288 288 288 289 289 288 288 288 288 288 288 288 287 287 287 287 287 287 287 287 286 285 285 284 283 282 282 282 282 282 282 282 281 281 281 281 280 280 279 279 279 279 278 278 278 278 278 277 278 279 278 277 277 277 276 276 276 276 276 276 276 277
296 296 295 295 294 293 292 291 291 291 291 291 290 289 288 288 288 288 288 288 288 288 288 288 288 288 288 288 288 288 288 288 288 287 287 287 287 287 287 287 287 287 286 285 285 284 283 282 282 282 282 282 282 281 281 281 281 280 280 280 279 279 278 278 277 277 276 276 277 277 276 276 277 277 275 275 276 276 276 276 276 276 276 277 277
296 296 296 295 293 292 292 292 292 292 292 291 289 288 288 288 288 287 287 287 287 287 287 287 287 288 288 288 288 288 288 287 287 287 287 287 287 287 287 287 287 286 286 285 285 284 283 282 281 281 281 281 281 281 281 281 280 280 280 280 279 279 278 278 277 277 276 275 276 277 276 275 276 276 275 275 276 276 276 276 277 277 277 277 277
296 296 296 295 293 292 293 293 293 292 292 290 289 288 288 288 287 287 287 287 287 287 287 287 287 287 287 288 287 287 287 287 287 287 287 287 287 287 287 286 286 286 286 285 284 284 282 281 281 281 281 281 281 281 280 280 280 280 279 279 279 279 279 278 278 277 276 276 275 276 276 275 275 275 276 276 277 277 277 277 277 277 277 277 277
296 296 296 295 293 293 293 294 293 293 291 290 289 288 288 287 287 287 287 287 287 287 287 287 287 287 287 287 287 287 287 287 286 286 286 286 286 286 286 286 286 286 285 285 284 284 282 281 281 281 281 281 281 280 280 280 279 279 279 279 279 279 278 278 277 277 276 276 276 276 276 276 276 277 277 277 277 277 277 277 277 277 277 277 277
296 296 295 294 294 294 294 294 294 292 291 289 288 288 288 288 287 287 287 287 287 287 287 287 287 287 286 286 286 287 287 286 286 286 286 286 286 286 286 286 286 286 285 285 284 284 282 281 281 281 281 281 280 280 280 279 279 279 279 279 278 278 277 277 276 276 276 276 276 276 276 277 277 277 277 277 277 277 277 277 276 276 276 276 276
296 295 295 295 294 295 295 294 293 292 291 290 289 289 289 288 288 287 287 287 287 287 287 287 287 286 286 286 287 287 286 286 286 286 286 286 286 286 286 286 286 285 285 285 284 283 282 281 281 281 281 281 280 280 279 279 279 278 277 277 276 276 276 276 276 276 276 276 276 276 277 277 277 277 276 276 276 276 275 275 275 275 275 276 276
296 295 295 295 295 295 295 294 294 293 292 291 290 290 289 289 289 288 288 287 287 287 287 287 287 287 287 287 287 287 287 286 286 286 286 286 286 286 286 285 285 285 285 285 284 283 282 281 281 281 281 280 280 280 279 278 277 276 275 275 276 276 276 276 276 276 276 276 276 276 276 275 275 275 275 275 275 274 274 274 275 275 275 275 275
296 296 296 296 296 295 295 295 294 293 293 292 291 290 290 290 290 289 288 288 288 288 288 288 288 288 288 288 287 287 287 286 286 286 286 285 285 285 285 285 285 285 285 284 284 283 282 281 280 280 280 280 280 279 278 277 276 275 275 276 276 276 276 276 276 275 275 275 275 275 275 275 275 275 275 275 275 274 273 273 273 273 273 273 273
296 296 296 296 295 295 295 295 295 294 294 293 292 291 291 291 290 290 289 289 289 288 288 288 288 288 288 288 287 287 287 286 286 286 285 285 285 285 285 285 285 285 285 284 284 283 282 281 280 280 280 280 279 278 277 276 275 275 276 276 277 276 276 275 275 274 275 275 275 275 275 275 275 274 274 274 274 274 273 273 272 272 272 272 273
294 294 294 294 294 294 294 294 294 294 294 293 292 292 291 291 290 290 289 289 289 289 289 288 288 288 288 287 287 287 287 286 286 285 285 285 285 285 285 285 285 284 284 284 284 283 281 280 280 280 280 279 278 278 277 275 275 276 276 276 275 275 274 274 274 275 275 274 274 274 274 274 274 274 274 273 273 273 273 273 272 271 271 271 272
293 292 292 292 292 292 292 293 293 293 293 293 292 292 291 291 290 290 289 289 289 288 288 288 288 288 287 287 287 287 287 286 286 285 285 285 285 284 285 285 284 284 284 284 283 282 281 280 280 280 279 279 278 277 276 274 275 276 275 275 274 274 274 274 274 274 274 274 274 274 274 274 274 274 273 273 273 273 272 272 272 271 271 271 270
292 291 291 291 291 291 291 291 292 292 292 292 291 291 290 290 290 289 289 288 288 288 288 288 288 288 288 287 287 287 287 286 286 285 285 285 284 284 284 284 284 284 284 284 283 282 280 280 279 279 279 278 277 276 275 275 275 275 275 274 274 274 274 274 274 274 274 274 274 274 274 274 274 274 273 273 273 272 272 272 272 272 272 271 270
291 290 290 290 290 290 290 290 291 290 290 290 290 290 289 289 289 288 288 288 288 288 288 288 288 288 288 287 287 287 287 286 286 285 285 284 284 284 284 284 284 283 283 283 282 281 280 279 279 279 278 277 276 276 276 276 275 275 274 274 274 274 274 274 274 274 274 274 274 274 274 273 273 273 273 273 273 272 272 272 272 272 272 271 271
291 290 290 290 290 290 290 290 290 290 290 290 289 289 289 289 288 288 288 288 288 288 288 288 288 288 288 287 287 287 286 286 286 285 285 284 284 284 284 284 283 283 283 282 281 280 279 279 279 278 278 277 276 277 276 275 275 275 274 274 274 274 273 273 273 273 273 273 273 273 273 273 273 273 273 273 273 272 271 271 272 272 271 271 271
291 290 290 290 290 290 290 290 290 290 290 289 289 289 289 288 288 289 289 288 289 288 288 288 288 288 287 287 287 287 286 286 286 285 285 284 284 284 284 283 283 282 282 281 280 280 279 278 278 278 277 277 277 276 276 275 275 274 274 274 273 273 273 273 273 273 273 273 273 273 273 273 273 273 273 273 273 272 270 270 270 271 270 269 269
291 291 291 290 290 290 290 290 290 290 290 290 289 289 289 289 289 289 289 289 289 288 288 288 288 288 287 287 287 287 286 286 286 285 285 284 284 283 283 283 282 282 281 281 280 279 278 278 278 278 277 277 276 276 275 275 274 274 274 273 273 273 273 273 273 273 273 273 273 273 273 273 273 273 273 273 273 272 270 269 268 269 269 268 268
291 290 291 290 290 290 290 290 290 290 290 290 289 289 289 289 289 289 289 289 289 288 288 288 288 288 287 287 287 286 286 286 286 285 284 284 283 283 283 282 282 281 281 280 279 278 278 278 278 278 277 276 276 275 275 274 274 274 274 273 273 273 273 273 273 273 273 272 272 272 272 272 273 273 273 273 273 272 270 269 269 269 268 268 268
291 290 290 290 290 290 290 290 290 290 289 290 289 289 289 289 289 289 289 288 288 288 288 288 288 287 287 287 286 286 286 286 285 284 284 283 283 283 282 282 281 281 280 279 278 277 277 277 277 277 276 275 275 275 274 274 274 274 273 273 273 273 273 273 273 273 272 272 272 272 272 272 272 273 273 273 273 272 271 269 269 269 268 268 268
290 290 290 290 290 290 290 290 290 289 289 289 289 289 289 289 289 289 288 288 288 288 287 287 287 287 286 286 285 285 285 285 284 283 283 283 282 282 282 281 281 280 280 278 276 276 276 276 276 276 275 275 275 274 274 274 274 273 273 273 273 273 273 272 272 272 272 272 272 271 271 272 272 272 272 271 272 272 271 270 269 268 268 268 268
290 290 290 290 290 290 289 289 289 289 289 289 288 288 288 288 288 288 288 288 287 287 287 287 286 286 285 285 284 284 284 284 283 283 282 282 281 281 281 280 280 279 278 276 275 275 275 275 275 275 274 274 274 274 274 273 273 273 273 273 273 273 272 272 272 272 272 272 272 271 271 271 271 271 271 271 271 271 271 271 269 268 268 268 268
290 290 290 290 290 289 289 289 289 288 288 288 288 288 288 288 287 287 286 286 286 286 286 285 285 285 284 284 283 283 283 282 282 281 281 280 280 279 279 278 278 277 276 274 274 275 275 275 275 275 274 274 274 274 273 273 273 273 273 273 273 272 272 272 272 272 272 272 271 271 271 271 271 271 271 271 270 270 271 270 269 268 268 268 268
290 290 290 290 290 290 289 289 289 289 288 288 288 288 287 287 287 286 285 285 284 285 284 284 283 283 283 283 283 282 282 281 280 280 280 279 278 278 277 277 276 276 275 274 274 275 275 275 275 274 274 274 274 273 273 273 273 272 272 272 272 272 272 272 271 271 271 271 271 271 271 271 271 271 271 271 270 270 270 270 269 268 268 268 268
290 290 290 290 290 289 289 289 288 288 288 288 287 287 287 286 286 285 284 283 283 283 283 282 282 281 281 281 281 280 280 280 279 279 278 278 277 277 276 275 275 275 274 274 274 275 275 275 274 274 274 274 273 273 273 273 272 272 272 272 272 272 271 271 271 271 271 271 271 271 271 271 271 271 271 271 271 270 270 270 269 268 267 267 268
290 290 289 289 289 289 289 288 288 288 287 287 287 287 286 285 284 284 283 282 282 282 282 281 281 280 280 280 279 279 279 278 278 277 277 276 275 275 274 274 274 274 274 274 275 275 275 274 274 273 273 273 273 272 272 272 272 272 271 271 271 271 271 271 271 271 271 271 271 271 271 271 271 271 270 270 270 270 270 270 269 268 267 267 267
289 289 289 289 289 288 288 288 287 287 287 287 286 286 285 284 283 282 281 281 281 280 280 280 279 279 279 279 279 279 278 278 278 277 276 276 275 273 273 273 273 273 273 274 275 275 274 274 273 273 273 272 272 272 272 272 272 271 271 271 271 271 271 271 271 271 271 271 271 271 271 271 271 270 270 270 270 270 269 269 269 267 267 266 267
289 289 289 288 288 288 287 287 287 286 286 286 285 284 283 283 282 281 280 280 279 279 279 279 279 279 279 278 278 278 278 277 277 276 276 275 274 273 273 273 273 273 273 274 274 274 274 273 272 272 272 272 272 271 271 271 271 271 271 270 270 271 271 271 271 271 271 271 271 271 271 270 270 270 270 270 270 270 269 269 268 267 267 267 267
288 288 288 287 287 287 286 286 286 285 285 284 283 283 282 281 280 280 279 279 279 279 279 279 279 279 279 278 277 277 276 276 276 276 275 274 274 273 273 273 273 273 273 274 274 273 273 272 272 272 272 271 271 271 271 271 271 270 270 270 270 270 270 270 270 270 270 270 271 270 270 270 270 270 269 270 270 269 269 268 267 267 267 268 268
287 287 287 287 286 286 285 285 284 284 283 283 282 281 280 280 279 279 279 279 278 278 278 278 278 278 277 277 276 276 275 275 275 275 275 274 273 272 272 272 272 272 272 273 273 272 272 272 272 271 271 271 271 271 271 271 270 270 270 270 270 270 270 270 270 270 270 270 270 270 270 270 270 269 269 269 269 269 269 268 267 267 267 268 268
286 286 286 286 285 285 284 283 283 282 282 281 281 280 279 279 279 278 278 278 278 278 278 277 277 277 276 275 275 274 274 274 274 274 273 273 273 272 272 272 271 271 271 272 272 271 271 271 271 271 271 270 270 270 270 270 270 270 270 270 270 270 270 270 270 270 270 270 270 270 270 269 269 269 269 269 269 268 268 268 267 267 267 267 268
285 285 285 284 284 283 283 282 281 281 280 280 280 279 279 278 278 278 277 277 277 277 276 276 275 275 274 273 273 272 272 272 272 272 271 271 271 272 272 272 272 272 272 272 271 271 271 271 270 270 270 270 270 270 270 270 270 269 269 269 269 270 270 270 270 270 270 270 269 269 269 269 268 268 268 268 268 268 268 267 267 267 267 268 268
284 283 283 283 282 282 281 281 280 280 279 279 278 278 277 277 277 276 276 275 275 274 274 273 273 272 272 271 271 270 270 270 270 270 270 270 270 270 270 270 271 271 271 271 271 270 270 270 270 270 270 270 270 270 270 269 269 269 269 269 269 269 270 270 269 269 269 269 269 269 268 268 268 268 268 268 268 268 267 267 267 267 267 268 268
282 282 281 281 281 280 280 279 279 278 278 277 277 276 276 275 275 274 274 274 273 273 272 272 272 271 270 270 269 269 268 268 268 268 268 268 268 268 268 268 269 269 269 269 269 269 269 270 270 270 270 269 269 269 269 269 269 269 269 269 269 269 269 269 269 269 269 268 268 268 268 268 268 267 268 268 267 267 267 267 267 267 267 267 268
281 280 280 279 279 278 278 277 277 276 276 275 275 274 274 274 273 273 273 272 272 271 271 271 270 270 269 269 268 268 267 267 267 267 267 266 266 267 267 267 267 268 268 268 268 268 268 269 269 269 269 269 269 269 269 269 269 269 269 269 269 269 269 269 269 268 268 268 268 268 268 267 267 267 267 267 267 267 267 267 266 267 267 267 267
278 278 278 277 277 276 276 275 275 275 274 274 273 273 273 272 272 271 271 271 270 270 269 269 268 268 267 267 267 266 266 266 266 266 266 265 265 265 265 266 266 267 268 267 267 267 267 268 268 268 269 269 269 269 269 269 269 268 268 269 269 269 269 268 268 267 267 268 268 267 267 267 267 267 267 267 267 267 266 266 266 266 266 267 267
276 276 276 275 275 275 274 274 274 273 273 272 272 272 271 271 271 270 270 270 269 269 268 267 267 266 266 265 265 265 265 264 264 264 265 265 265 265 265 265 266 267 267 267 267 267 267 267 267 268 268 268 268 268 268 268 268 268 268 268 268 268 268 268 267 267 267 267 267 267 267 267 267 267 266 267 267 266 266 266 266 266 266 266 267
275 275 274 274 274 273 273 273 272 272 272 271 271 271 270 270 270 269 269 269 268 268 267 267 266 265 265 264 264 264 264 264 264 264 264 264 264 265 265 265 266 266 267 267 267 267 267 267 267 268 268 268 268 268 268 268 268 268 268 268 268 268 268 267 267 267 267 267 266 266 266 266 267 267 266 266 266 266 266 266 266 265 266 266 267
274 273 273 273 272 272 272 272 271 271 271 270 270 270 270 269 269 269 268 268 267 267 267 266 266 265 265 264 264 264 264 264 264 264 264 264 264 264 265 265 265 266 266 266 266 266 266 267 267 267 267 268 268 268 268 268 268 268 267 267 267 267 267 267 267 267 266 266 266 266 266 266 266 266 266 266 266 266 266 266 266 265 266 266 267
272 272 272 271 271 271 271 271 270 270 270 270 270 269 269 269 269 268 268 268 267 267 267 266 266 265 265 265 264 264 264 264 264 264 264 264 264 264 264 264 265 265 265 265 266 266 266 266 267 267 267 267 267 268 268 267 267 267 267 267 267 267 267 267 266 266 266 266 266 266 266 266 266 266 266 266 266 266 266 266 265 265 266 266 267
271 271 271 271 270 270 270 270 270 270 270 269 269 269 269 269 268 268 268 268 267 267 267 266 266 265 265 265 264 264 264 264 264 264 264 264 264 264 264 264 264 265 265 265 265 266 266 266 267 267 267 267 267 267 267 267 267 267 267 267 267 267 266 266 266 266 266 266 266 266 266 266 266 266 266 266 266 266 265 265 265 265 266 266 266
270 270 270 270 270 270 270 270 269 269 269 269 269 269 268 268 268 268 268 268 267 267 267 266 266 266 265 265 265 264 264 264 264 264 264 264 264 264 264 264 264 265 265 265 265 266 266 266 266 266 267 267 267 267 267 267 267 266 266 266 266 266 266 266 266 266 266 266 266 266 266 266 266 266 266 266 266 265 265 265 265 265 266 266 266
Wind_Speed
29 28 26 25 23 21 20 18 17 16 15 14 12 11 10 10 10 10 10 10 10 10 10 11 11 12 12 11 10 10 10 11 11 12 13 14 15 15 17 17 18 19 20 20 21 21 21 20 20 20 20 20 20 20 21 21 22 22 22 23 24 23 24 24 28 35 38 36 38 39 39 41 43 43 45 47 47 47 47 46 46 46 47 47 47
29 28 26 25 24 22 21 20 19 18 17 15 14 13 13 12 12 12 12 12 12 12 12 12 12 12 11 10 10 10 10 11 11 12 13 14 15 16 17 18 19 20 21 22 22 22 21 20 20 20 20 20 20 20 21 21 21 22 22 23 24 23 23 25 27 33 38 39 39 40 40 41 43 44 45 47 49 49 50 50 49 48 47 47 48
29 28 27 26 25 24 23 22 21 20 18 17 16 15 15 14 14 14 13 13 13 13 14 13 13 12 11 10 10 10 10 11 12 13 14 15 17 17 18 19 20 21 22 23 23 22 21 20 20 20 20 20 20 20 20 21 21 22 22 22 23 24 24 26 28 31 37 41 42 42 43 42 44 44 44 46 47 48 50 51 51 50 49 48 48
30 29 28 27 26 25 25 24 23 21 20 19 18 17 16 16 15 15 15 14 15 15 15 14 13 12 11 10 10 11 11 12 13 14 15 16 17 18 19 20 21 22 23 24 24 23 21 20 20 20 20 20 20 20 20 21 21 22 23 23 24 26 27 27 29 31 36 41 44 44 44 44 44 45 45 45 46 47 48 49 50 51 50 49 47
32 30 29 29 28 27 27 25 24 23 21 20 19 18 18 17 17 16 16 16 16 16 16 14 13 12 12 12 12 12 13 13 14 15 16 17 18 19 20 21 22 23 24 25 25 24 22 21 20 20 21 21 21 20 20 21 21 22 24 25 26 27 29 30 31 32 35 40 44 45 45 45 45 46 45 46 47 48 48 48 48 49 50 49 48
33 32 31 30 29 28 27 26 25 24 22 21 20 20 19 19 18 17 17 17 17 17 16 15 14 14 13 13 13 14 14 14 15 16 17 17 18 19 21 22 23 24 25 26 26 24 22 21 21 21 21 22 21 21 21 22 23 24 25 27 28 30 31 33 33 35 37 40 43 45 46 46 46 47 47 46 48 49 48 49 48 47 47 48 49
35 33 32 31 30 29 28 27 25 24 23 22 21 21 20 20 19 18 18 18 18 18 17 16 16 15 14 14 14 14 14 15 16 17 18 18 19 20 21 23 24 25 26 27 26 25 23 22 22 22 22 21 21 21 22 23 24 26 27 28 30 31 33 34 35 36 38 40 42 44 45 46 46 47 47 46 46 46 45 46 48 48 46 46 47
36 35 33 32 31 29 28 26 25 24 23 23 22 22 21 21 20 19 19 20 19 19 18 18 17 16 16 16 15 15 15 16 17 18 19 19 20 21 22 24 25 26 27 27 27 25 23 22 22 22 22 21 21 21 22 24 25 26 27 28 30 32 33 35 35 36 38 40 42 43 44 46 46 46 46 45 45 45 42 41 44 46 45 45 46
37 36 35 33 31 30 28 26 26 25 25 24 24 24 23 22 22 21 21 21 21 20 20 19 19 18 17 17 16 16 16 17 18 19 20 20 20 21 23 24 25 27 27 28 27 25 23 22 22 22 22 21 21 22 23 24 25 27 28 29 30 32 33 35 36 37 38 39 41 42 43 45 46 45 45 44 43 43 41 38 40 42 43 45 46
38 37 36 34 32 30 28 27 27 27 27 26 26 25 25 24 23 22 22 22 22 22 21 21 20 20 19 18 18 17 18 19 20 20 21 21 21 22 23 25 26 27 28 28 27 25 23 22 22 22 21 21 21 22 23 24 25 27 28 29 31 32 34 35 36 36 37 38 40 40 42 45 45 43 43 44 42 41 38 36 38 40 41 45 48
39 38 36 34 32 30 29 29 29 28 28 28 27 27 26 25 24 24 24 24 24 24 23 23 22 21 21 20 20 19 19 20 21 21 21 21 22 23 24 26 27 27 28 28 27 24 23 22 22 22 21 21 22 22 23 24 25 27 28 29 30 31 32 33 35 35 35 37 40 40 40 43 44 41 41 43 42 39 37 36 38 40 41 44 48
40 38 36 34 32 31 30 30 29 30 30 29 29 28 27 26 25 25 25 25 25 25 25 24 24 24 23 22 22 21 22 22 22 22 22 22 23 25 26 27 28 28 28 27 26 24 23 22 22 22 21 22 23 23 24 25 26 27 29 30 30 30 30 30 31 32 33 35 38 39 38 39 41 40 39 39 39 38 39 40 40 41 43 45 50
40 38 36 34 33 32 31 30 30 31 31 31 30 29 28 27 27 26 26 26 27 27 26 26 26 26 25 24 24 24 23 23 23 23 23 23 24 26 27 28 28 28 28 27 26 24 23 23 23 22 22 23 23 24 25 26 27 29 30 31 31 31 30 30 30 30 31 32 35 38 36 36 39 41 39 38 40 41 43 44 44 45 47 49 52
40 38 36 35 34 32 31 31 31 32 32 31 30 29 29 28 27 27 28 28 29 28 28 28 28 28 27 26 26 26 25 24 24 24 24 24 25 27 28 29 29 29 28 28 27 25 24 24 24 24 24 24 24 25 26 27 29 30 31 31 31 31 31 32 31 31 31 31 33 37 37 37 39 42 41 39 42 44 45 46 46 46 48 50 52
39 38 37 36 34 32 32 33 34 34 33 31 30 29 29 28 28 29 29 29 29 29 30 30 30 29 29 28 28 28 27 26 26 25 25 25 26 27 29 29 30 30 29 29 28 27 25 25 25 25 25 25 25 25 26 28 29 31 32 32 33 33 33 33 33 33 34 33 34 36 39 39 40 42 42 41 41 42 43 45 45 45 47 49 50
37 37 37 36 34 33 34 34 35 34 32 31 30 30 29 29 29 29 29 29 30 31 32 32 31 30 30 30 30 30 29 27 27 26 26 26 27 28 29 30 30 30 30 30 30 28 27 26 26 26 26 26 25 26 26 28 29 31 33 34 34 34 34 34 34 34 33 32 32 34 37 38 38 38 39 38 38 40 43 47 47 46 47 49 50
34 35 35 34 34 34 34 34 33 33 32 31 31 30 29 29 29 29 29 30 30 31 32 31 31 31 31 31 32 31 30 28 27 27 27 26 28 29 30 31 31 31 30 30 30 29 28 27 27 27 27 26 26 27 27 27 28 30 31 33 34 34 35 35 33 32 30 28 30 32 33 35 36 37 40 41 41 42 44 46 46 43 43 46 48
31 32 32 32 32 32 32 32 32 31 31 31 30 29 29 28 28 28 29 29 29 30 30 30 30 31 31 32 32 32 31 29 28 28 27 27 29 30 31 31 31 31 31 31 31 30 29 28 27 28 28 27 28 28 27 26 26 26 27 30 33 34 34 33 32 32 33 33 34 36 38 40 41 43 43 43 42 39 37 38 40 39 40 44 46
24 24 24 25 26 27 28 29 29 30 30 29 29 28 28 27 27 27 28 28 28 28 29 29 30 31 32 33 32 32 31 29 27 28 27 28 29 30 31 32 32 32 32 32 32 31 29 29 28 27 27 28 28 27 24 22 22 23 25 28 31 32 33 34 35 37 39 41 41 43 43 43 42 42 41 39 38 35 33 34 36 36 39 43 43
14 15 17 19 21 23 24 25 26 27 28 28 27 27 27 26 27 27 27 28 28 28 29 30 31 32 32 32 32 31 30 28 27 28 28 28 29 30 31 32 32 32 33 33 33 32 31 29 28 27 27 27 27 25 23 20 20 21 23 26 30 33 35 37 38 39 40 41 41 41 41 40 38 37 36 35 34 32 31 31 31 31 34 37 38
12 14 15 17 18 20 21 22 23 24 25 25 26 26 27 27 27 28 27 28 28 30 31 31 31 31 30 30 30 30 29 28 28 28 28 28 29 31 32 32 32 32 33 34 34 33 31 29 28 27 27 26 26 24 22 19 18 20 24 27 30 32 33 35 37 36 37 37 37 37 36 35 33 32 32 31 30 29 28 28 28 28 29 31 34
13 15 16 17 18 19 20 21 21 22 23 24 26 27 27 28 28 28 29 29 30 30 30 29 29 29 29 30 30 29 29 29 28 29 29 29 30 31 32 32 32 32 34 34 34 33 32 30 28 27 26 26 25 23 20 19 21 24 26 27 28 29 30 32 33 33 33 33 33 32 31 31 30 30 30 29 29 28 28 28 28 28 29 30 32
15 16 17 18 19 20 20 20 21 22 23 24 25 26 27 28 29 29 30 30 30 29 29 28 29 29 29 30 30 30 29 29 29 29 29 29 30 31 31 32 32 32 34 34 34 33 32 30 28 26 27 26 23 20 20 23 25 25 25 25 26 27 28 29 29 29 29 29 29 29 29 28 29 29 29 29 29 28 28 28 28 29 29 29 29
16 17 18 19 19 20 20 20 21 21 22 23 25 26 28 28 29 29 30 29 30 30 30 30 30 30 30 30 30 30 30 30 29 29 29 30 30 31 31 32 32 32 33 34 33 32 31 29 27 27 26 24 21 22 24 25 24 23 23 24 25 25 25 26 26 26 27 26 27 27 27 26 27 28 28 28 28 27 26 26 26 26 27 28 28
17 17 18 20 20 20 21 21 22 22 23 24 26 27 28 29 29 30 30 31 32 32 33 33 33 32 32 31 30 30 30 30 29 29 29 30 31 31 31 32 31 31 32 32 32 32 30 29 27 26 25 22 23 25 25 23 21 22 22 22 22 22 22 23 24 24 24 24 25 26 26 26 26 27 27 26 26 26 26 26 26 26 27 29 29
17 17 18 19 20 22 23 23 24 25 25 26 27 28 29 30 31 32 33 34 34 35 35 35 35 34 33 31 30 30 31 30 30 30 30 30 31 31 31 31 31 30 30 31 31 30 29 28 27 26 24 23 24 25 24 22 21 21 21 20 20 21 21 21 22 22 23 23 24 25 25 26 26 25 25 25 25 26 28 29 30 30 30 32 33
20 20 20 20 21 23 25 26 27 27 28 28 29 30 31 32 33 35 36 36 37 38 38 37 37 36 34 32 31 30 30 31 31 31 31 31 30 30 31 31 30 30 30 30 29 28 28 28 28 26 23 22 23 23 23 22 21 20 19 19 19 19 19 19 20 21 22 22 23 24 25 25 25 25 24 25 26 26 27 29 31 31 32 33 34
25 25 24 23 24 25 26 28 29 30 30 31 31 32 34 35 37 38 38 39 39 40 40 39 38 36 33 31 30 31 31 32 32 31 30 31 31 31 31 31 30 29 29 28 27 27 28 29 28 26 23 23 23 22 21 20 20 19 19 18 18 18 18 18 18 19 20 21 22 23 24 24 25 25 25 26 27 27 28 29 30 31 32 33 34
28 29 29 29 29 29 29 30 31 33 34 34 35 36 37 38 40 40 40 41 41 41 40 39 38 35 33 32 32 33 34 33 31 30 31 32 32 32 31 31 30 30 29 27 26 27 28 28 27 26 24 23 23 22 21 20 19 19 18 18 18 18 17 17 18 18 19 20 21 23 24 25 25 26 26 27 28 28 28 29 30 31 32 33 34
27 29 32 33 34 34 33 34 34 36 37 37 38 39 40 41 42 43 43 43 43 43 42 41 39 37 36 35 35 35 35 33 32 32 34 34 32 32 31 31 30 30 29 26 24 26 28 27 27 27 25 24 24 23 22 21 20 18 17 17 17 18 17 17 17 17 18 19 21 22 23 24 26 27 28 29 29 29 29 29 29 31 32 33 35
28 29 30 32 35 37 38 38 38 38 39 39 40 40 41 42 43 43 44 44 45 45 44 42 40 38 37 36 35 35 35 35 35 35 34 34 32 31 31 29 28 28 27 24 25 28 29 28 29 27 25 24 24 23 22 21 20 19 17 16 16 17 17 16 16 17 18 18 20 21 23 24 25 26 27 28 30 30 30 29 29 31 32 33 35
29 29 29 30 31 33 36 38 39 40 40 40 41 41 41 41 42 42 43 43 44 45 44 42 40 38 37 36 36 36 36 36 35 35 34 32 31 30 29 27 27 26 24 24 27 30 30 29 29 27 25 25 24 23 22 22 20 19 18 17 17 16 17 17 16 16 17 19 20 21 23 24 25 26 26 28 29 30 31 30 30 31 32 34 35
29 29 29 30 30 31 32 34 35 36 37 38 38 38 39 39 39 39 39 39 41 42 42 41 40 38 37 37 37 37 37 36 35 34 33 31 30 29 28 27 27 26 24 26 31 32 30 30 28 26 25 25 24 23 22 22 20 19 18 18 17 17 16 17 17 17 18 19 21 22 23 24 25 26 27 28 29 30 31 30 30 31 32 35 36
29 29 30 31 31 32 32 32 32 33 33 34 34 35 35 35 35 35 35 36 37 39 39 39 38 36 36 36 36 36 35 34 33 32 32 31 30 28 27 27 28 27 25 28 33 33 30 30 28 25 25 25 24 23 22 22 21 20 19 18 18 17 17 17 17 18 19 20 21 22 23 24 25 26 28 29 29 30 31 31 30 30 32 35 37
29 30 30 30 31 31 31 31 31 31 31 31 32 32 32 33 33 33 33 34 35 36 36 36 35 34 34 34 34 33 32 32 32 31 31 31 30 29 27 28 30 29 28 31 33 33 31 29 27 25 25 25 24 23 23 22 21 20 19 19 19 18 18 18 18 19 20 21 23 24 24 25 26 26 28 30 30 31 32 31 30 29 31 34 36
28 29 29 29 29 29 30 30 30 30 30 30 30 31 31 30 31 31 30 30 31 32 33 33 33 32 32 33 33 33 32 32 32 32 32 31 30 29 29 31 32 32 31 32 33 33 31 29 26 26 26 25 24 23 23 22 22 21 20 20 20 20 20 19 19 20 21 22 24 25 25 26 26 27 28 30 31 31 32 31 29 29 30 33 35
28 28 27 27 27 27 28 28 28 29 29 29 29 28 28 28 27 27 27 27 28 29 30 31 32 32 33 33 32 33 33 33 32 32 32 31 30 30 31 32 33 34 33 33 33 33 31 28 26 26 26 25 24 23 23 22 22 22 21 21 21 21 21 20 20 21 22 23 24 25 26 26 27 27 28 30 31 31 32 31 29 28 30 33 34
26 26 25 25 25 25 25 25 25 25 25 25 25 25 24 24 25 25 25 26 27 28 29 31 32 33 34 33 32 32 32 32 32 32 32 32 31 31 31 32 34 35 34 33 32 33 31 28 25 25 26 25 24 23 23 23 23 22 22 22 22 22 22 21 21 22 23 24 25 25 26 26 27 27 29 30 31 32 32 31 28 28 31 33 33
24 23 23 23 23 22 22 22 22 22 22 22 21 21 21 22 23 23 25 26 27 28 29 31 31 32 32 32 31 32 32 32 33 33 33 32 31 31 31 32 33 34 34 33 32 31 30 28 26 25 25 25 24 24 24 24 23 23 23 23 23 23 22 22 22 23 23 24 25 26 26 27 27 28 29 30 31 31 32 30 28 28 30 33 33
20 20 20 20 20 20 20 19 19 19 19 19 19 20 20 21 22 23 25 26 27 28 29 31 31 32 31 30 30 30 31 32 32 32 33 34 33 33 32 32 33 34 33 32 31 30 29 27 26 25 25 25 24 24 24 24 24 24 23 24 24 24 23 23 23 23 24 25 26 26 27 27 28 28 29 30 30 30 31 30 28 27 29 31 32
18 18 19 19 19 18 18 18 18 18 18 18 19 20 21 22 23 24 24 26 27 28 29 30 30 30 30 30 29 28 30 32 32 32 32 33 34 34 34 34 33 33 32 31 30 28 27 26 26 25 26 25 24 24 25 24 24 24 24 24 25 25 24 24 24 24 25 26 27 27 28 27 27 28 29 30 30 29 30 29 28 27 28 29 31
16 17 17 17 18 17 17 17 18 18 18 19 19 20 21 22 23 23 24 25 26 27 28 29 29 29 30 29 28 27 28 31 32 33 33 33 32 32 32 33 33 32 31 30 29 27 27 26 25 25 26 25 25 25 25 25 24 24 24 25 25 25 25 25 25 25 26 27 28 28 28 27 27 27 28 29 29 29 29 29 28 26 27 28 29
15 15 16 16 17 17 17 17 18 18 18 19 19 20 21 22 23 24 25 26 27 28 29 30 30 30 31 30 29 28 28 28 30 32 34 34 33 32 30 30 30 30 30 28 27 26 26 26 25 25 26 25 25 26 26 25 24 24 25 25 25 26 26 26 26 26 26 27 28 28 27 26 26 26 27 27 28 28 28 28 27 26 26 28 29
14 14 14 15 15 16 16 17 18 19 19 20 20 20 21 21 22 22 23 24 24 25 26 27 28 29 29 29 29 29 28 28 28 29 31 32 32 32 30 28 27 28 28 27 25 25 25 25 25 25 26 26 26 26 26 25 25 24 25 25 26 27 27 27 27 26 26 27 27 27 26 26 26 26 26 26 27 27 28 27 26 25 26 28 29
12 13 13 14 14 15 16 17 18 18 19 19 19 19 18 18 18 18 19 19 20 21 22 23 24 25 26 26 26 26 27 26 26 27 27 28 28 28 27 26 25 26 27 26 25 24 24 24 24 25 26 26 26 25 25 25 25 25 25 26 27 28 27 27 26 26 26 26 27 27 26 26 26 25 25 25 25 26 27 27 25 24 26 27 28
12 13 13 14 15 15 16 16 16 16 16 16 16 15 15 15 15 15 16 17 18 19 20 21 22 22 23 23 23 24 24 24 24 24 24 25 25 24 24 23 23 24 25 25 24 23 23 23 24 25 25 25 25 25 25 25 25 25 26 26 27 27 27 26 26 25 25 26 26 26 26 26 26 25 25 25 25 25 26 26 24 23 25 27 27
13 13 14 14 14 14 14 14 13 13 13 13 13 13 13 13 14 15 16 17 18 19 20 20 21 21 21 21 22 22 22 22 22 22 22 22 22 21 21 21 20 21 22 23 22 22 22 22 23 24 25 25 25 25 25 25 25 25 26 26 26 26 26 25 25 25 25 25 25 25 25 25 25 25 24 24 24 25 25 24 23 23 24 25 25
13 13 13 13 12 12 12 12 12 12 12 11 11 12 12 13 14 15 16 17 18 19 20 21 21 21 21 21 21 21 21 21 21 21 20 20 19 19 18 18 18 19 20 20 20 20 21 21 22 23 24 24 25 25 25 25 25 26 25 25 25 25 25 25 25 24 23 23 23 23 24 24 25 25 24 24 24 24 24 23 22 22 23 24 23
12 11 11 11 11 11 11 11 11 11 11 11 11 12 12 13 14 15 16 17 18 19 20 21 21 21 20 20 20 20 21 21 21 20 19 18 18 17 17 17 17 18 19 19 19 19 20 20 21 23 24 24 25 25 25 25 25 25 24 24 24 24 24 24 23 22 22 22 23 23 23 24 24 24 24 24 24 24 23 22 21 22 22 22 22
11 11 11 11 11 11 11 11 11 11 11 12 12 12 13 14 15 15 16 17 18 18 19 21 21 21 20 20 20 20 20 20 20 20 19 18 17 16 16 17 17 18 18 19 19 19 20 21 22 23 23 24 25 25 25 24 24 23 23 23 24 23 23 22 22 21 21 22 22 22 23 24 24 24 24 23 23 23 22 21 21 21 20 20 20
10 11 11 11 11 11 11 11 11 11 11 12 12 13 14 15 15 16 17 18 18 18 19 20 21 21 20 20 20 20 20 20 20 20 20 19 18 17 17 17 17 18 18 19 19 20 20 21 22 22 23 24 24 24 24 24 23 23 23 22 23 22 22 21 21 20 20 20 21 22 23 23 23 23 23 23 23 23 22 21 20 19 18 18 18
Wind_Direction
194 195 195 195 196 195 194 194 195 195 195 195 198 203 208 213 218 224 228 233 239 242 247 252 255 260 264 269 277 285 294 304 313 319 322 324 327 330 331 333 332 332 332 330 327 324 320 318 315 314 313 313 313 311 310 310 310 312 313 314 316 318 319 317 314 314 317 320 321 323 325 325 324 324 324 322 322 321 320 319 319 318 317 317 316
197 198 198 198 198 198 199 200 199 200 200 202 206 210 215 219 223 228 232 236 241 245 249 252 254 258 263 270 279 288 298 306 312 315 318 321 324 327 329 330 331 332 332 332 330 326 321 318 316 314 313 312 312 310 309 309 310 311 313 314 315 317 318 317 316 317 317 319 320 322 324 324 322 322 322 321 320 320 319 319 319 318 317 316 315
201 201 202 201 201 202 203 204 205 205 206 209 212 216 219 223 227 232 236 239 243 247 250 250 252 256 261 268 278 288 297 304 308 312 317 320 323 325 327 329 329 331 332 333 331 327 321 317 314 312 311 310 309 309 309 309 311 312 313 315 316 317 319 319 318 318 319 319 320 321 322 322 321 321 320 319 318 318 318 318 318 317 316 315 314
204 204 204 204 204 206 207 208 209 210 212 214 217 220 222 226 230 234 238 242 245 247 247 247 249 252 258 265 276 286 293 299 305 311 316 319 321 323 325 327 327 329 332 333 332 328 321 315 312 310 309 308 308 308 308 310 311 313 314 316 318 318 320 320 318 318 317 317 319 321 320 319 320 319 317 316 316 316 317 317 316 315 314 314 314
207 207 207 207 208 210 211 212 213 215 216 218 220 223 226 229 232 236 240 243 245 245 245 245 246 250 256 265 274 282 288 296 302 309 314 316 319 322 323 324 325 328 331 333 332 328 320 315 311 309 308 308 309 309 310 312 313 314 316 318 319 320 320 320 319 317 316 316 318 319 319 318 318 318 317 317 317 317 317 316 315 314 313 312 312
210 210 211 211 212 214 215 216 218 218 219 220 223 226 229 232 234 238 240 243 244 244 243 243 246 251 257 265 272 279 287 295 301 307 310 313 316 319 320 321 323 326 330 332 331 327 320 313 310 310 309 309 310 311 312 314 315 316 318 320 320 320 320 319 318 316 315 315 316 316 317 316 316 317 318 318 318 318 317 316 314 313 313 312 311
213 213 214 215 216 218 219 220 221 222 222 224 227 230 232 234 236 239 241 243 244 243 241 243 246 252 259 265 272 279 286 293 299 303 306 309 312 315 316 318 320 324 328 330 330 325 318 312 310 310 309 310 311 313 314 315 316 317 319 319 319 318 317 316 315 314 314 313 313 313 314 315 314 315 317 317 316 316 317 317 314 313 313 313 312
216 216 217 218 219 221 222 223 223 224 225 226 230 233 234 236 238 239 241 242 242 241 241 244 248 253 259 265 271 278 285 292 297 299 301 305 308 310 312 314 317 322 325 327 327 322 316 310 308 309 309 310 311 312 314 314 314 315 316 315 315 314 314 313 313 313 312 312 312 312 312 312 312 313 314 314 314 314 316 318 316 315 315 313 313
219 219 220 221 223 223 223 224 224 225 227 230 232 234 236 238 239 239 240 240 241 241 242 246 250 254 259 265 270 276 284 290 293 295 298 301 304 306 309 312 315 319 322 324 323 319 313 308 307 307 307 308 310 311 312 312 312 312 312 312 312 312 312 312 311 311 311 310 310 310 310 310 310 312 313 313 314 315 317 319 317 318 319 316 314
222 223 224 225 226 226 225 225 226 227 230 233 235 235 237 238 238 238 239 240 241 242 244 248 252 256 260 265 269 275 283 287 291 294 296 298 301 303 306 310 313 316 319 321 321 316 310 306 305 305 305 306 308 308 309 309 309 310 311 311 311 311 311 310 310 309 309 308 308 308 308 308 309 311 312 313 314 316 318 320 319 319 320 317 315
225 226 227 228 229 228 227 227 229 232 235 236 237 237 237 237 237 238 239 241 242 243 246 249 252 257 261 264 269 275 281 285 289 292 294 296 298 301 304 307 310 313 316 318 318 314 307 304 304 304 303 304 305 305 307 307 307 308 309 309 309 308 307 308 308 309 308 307 307 307 306 306 309 312 314 315 318 319 320 319 317 314 314 313 311
229 230 231 231 231 230 230 231 233 236 239 240 239 238 237 236 237 239 240 242 244 244 246 250 254 258 261 265 271 276 280 283 287 290 291 293 296 299 301 304 307 311 314 316 316 311 306 304 304 302 302 303 303 304 305 306 307 308 308 309 308 307 305 304 304 304 304 304 305 305 303 304 309 312 314 318 320 319 317 315 313 310 308 306 305
232 233 234 234 233 232 234 235 238 241 242 241 239 237 237 237 238 240 242 244 245 245 246 250 255 259 263 267 272 276 279 282 285 288 289 291 294 296 299 302 305 308 312 315 314 309 306 304 302 301 302 302 303 305 307 308 309 309 309 309 308 305 302 300 299 301 305 305 304 303 305 308 310 313 316 318 317 314 312 310 309 306 304 302 302
236 237 238 237 236 235 238 240 242 244 243 242 240 238 238 239 240 242 243 244 245 246 248 252 257 261 265 269 273 276 278 280 282 284 286 288 291 293 296 299 303 307 311 313 313 309 305 304 302 302 302 303 305 307 308 309 309 309 309 307 304 303 301 302 304 308 312 311 306 306 310 312 312 312 315 314 310 308 307 307 306 304 302 301 301
239 240 240 239 238 238 241 243 244 245 244 242 241 240 240 241 242 243 244 246 248 249 250 253 258 263 267 271 274 276 277 278 279 281 283 285 287 290 294 297 301 305 309 312 311 307 304 303 302 302 303 305 307 307 308 310 309 308 308 306 306 307 308 310 315 318 320 319 313 309 310 310 308 310 311 309 307 307 307 305 304 303 301 300 298
241 241 240 239 239 241 244 245 246 247 245 243 242 241 241 242 243 245 246 247 249 250 252 254 259 264 268 272 274 276 276 276 277 279 280 282 285 288 292 296 299 304 308 310 309 306 303 302 302 303 304 305 306 307 309 309 307 307 309 310 311 313 314 318 322 322 319 313 306 302 302 302 303 303 303 301 299 300 299 296 296 298 298 297 295
242 241 240 240 241 244 246 248 249 248 247 245 244 243 243 243 245 246 247 249 250 252 255 258 262 266 269 272 274 275 275 274 275 277 278 280 283 286 290 294 298 303 306 308 307 305 302 302 302 302 303 304 306 307 308 309 310 312 313 313 314 316 319 322 322 319 313 304 296 295 295 295 295 294 294 293 293 295 296 295 296 299 298 296 296
241 241 242 243 244 246 248 250 250 249 248 247 246 245 245 245 247 248 249 251 253 256 259 261 264 267 269 271 273 273 273 273 273 274 275 277 280 284 289 293 297 302 305 305 305 303 301 301 301 302 304 305 306 307 311 314 313 310 310 313 317 319 319 318 313 308 304 298 294 294 295 294 295 295 296 298 298 299 296 292 294 295 293 292 293
242 243 245 246 246 247 248 249 249 248 247 247 247 246 246 247 250 250 251 254 256 258 261 262 264 266 268 270 271 271 272 271 270 271 272 275 279 284 289 292 296 301 303 303 303 301 300 300 301 303 305 305 307 310 313 312 306 307 313 317 315 311 307 304 301 298 298 298 298 300 301 302 303 303 304 304 303 302 298 293 292 291 289 290 292
244 244 245 244 245 246 247 248 248 246 245 244 244 246 247 249 250 251 252 254 256 258 260 262 263 265 267 269 269 269 270 268 267 268 270 273 278 283 288 291 296 300 300 300 301 300 299 300 302 303 305 305 307 309 310 308 308 311 311 304 297 296 297 297 297 298 301 302 305 307 308 309 309 308 308 307 305 305 303 299 296 292 290 291 293
241 240 241 240 242 244 244 246 247 245 244 243 243 245 247 249 250 251 253 254 256 258 259 260 263 265 266 268 268 267 268 267 266 267 269 273 278 283 287 291 295 297 298 298 299 298 298 300 301 303 305 304 305 307 310 311 306 296 290 288 290 295 297 298 300 303 306 307 309 310 312 314 314 313 312 310 310 310 308 305 302 298 294 292 292
243 242 242 241 241 242 242 243 244 243 242 242 243 245 246 248 249 250 251 253 254 255 257 258 261 264 265 267 267 267 266 266 266 266 268 272 277 282 286 290 293 295 296 296 297 296 297 298 301 303 303 301 304 309 308 301 293 290 292 296 299 299 299 300 304 307 309 311 313 315 319 321 320 319 318 317 316 315 313 310 308 304 298 293 291
246 245 245 244 243 243 243 244 243 243 243 243 244 245 246 248 249 250 251 252 252 253 255 257 260 263 265 267 268 268 267 266 266 267 269 272 277 281 285 288 291 293 293 295 295 295 296 298 300 300 299 300 303 301 294 291 294 299 302 301 300 301 302 305 307 309 311 315 318 320 325 327 326 325 324 322 319 318 314 311 310 307 303 300 297
244 245 245 246 246 246 246 245 245 245 245 245 247 248 249 250 251 251 251 250 250 252 255 257 260 263 265 267 268 269 268 266 266 267 269 273 277 280 284 287 289 290 292 293 293 294 295 296 297 297 298 298 295 291 290 295 299 300 299 299 301 303 306 308 310 312 315 318 321 324 329 332 331 329 328 325 323 322 321 318 316 314 312 311 309
247 248 249 249 249 249 248 247 247 248 250 251 252 253 254 253 253 252 251 250 251 253 255 258 260 262 263 266 268 270 269 267 267 267 270 273 276 279 282 285 287 288 289 290 291 292 292 292 292 294 294 292 290 293 296 297 297 296 298 300 303 305 307 310 311 313 316 321 324 329 333 335 334 332 331 329 329 331 333 331 327 325 324 323 321
255 256 255 253 252 252 251 251 252 254 256 257 257 256 255 254 253 252 252 252 253 254 256 257 259 260 262 264 266 268 268 269 269 269 270 273 275 278 281 283 285 285 285 286 287 287 287 287 288 290 289 288 291 295 297 297 297 299 300 301 303 306 308 310 312 314 319 325 329 333 336 337 336 335 334 333 335 339 341 338 333 333 334 331 327
259 260 260 259 256 255 255 256 258 260 260 260 259 257 255 254 252 252 252 253 254 255 256 257 258 260 262 263 265 266 267 269 270 271 272 274 276 278 279 281 282 282 282 283 283 282 281 282 284 286 287 289 292 294 296 298 299 298 297 298 301 304 306 309 312 316 322 328 331 334 336 336 335 336 337 338 339 342 341 337 333 334 335 333 329
260 260 260 260 258 257 258 259 261 262 263 262 260 259 257 256 255 256 257 258 259 259 259 260 261 262 263 263 263 263 263 266 270 274 276 276 276 277 278 280 280 280 280 280 280 278 278 280 283 287 291 292 293 292 292 293 292 291 293 295 298 300 303 307 311 316 323 327 331 334 335 334 334 336 339 341 342 342 341 338 335 333 334 334 331
263 261 260 259 259 259 260 261 262 264 263 263 261 260 259 259 259 260 261 261 261 261 260 261 261 262 261 260 260 260 262 266 270 274 274 274 275 277 279 280 280 280 279 279 277 277 279 282 285 289 292 292 291 290 289 288 288 288 290 292 295 297 301 305 310 315 322 326 331 334 334 334 337 340 341 342 342 342 341 339 336 335 334 332 330
270 267 265 263 262 261 260 261 262 263 263 264 263 263 263 263 263 263 262 261 260 259 258 258 258 257 257 258 259 261 264 267 269 270 271 273 276 278 279 280 280 280 280 280 278 277 278 281 284 287 288 288 287 287 288 287 287 286 287 289 292 295 300 305 310 315 321 327 330 333 333 335 339 342 341 340 339 341 341 340 337 336 334 331 329
275 274 273 271 268 266 264 262 263 263 265 266 267 267 267 266 266 266 265 263 261 259 257 257 256 256 257 259 261 263 265 266 268 269 272 274 276 276 277 278 277 277 278 277 273 271 274 277 281 283 283 282 283 284 285 285 285 285 285 286 289 293 298 303 308 312 319 324 327 329 333 337 340 341 340 338 337 338 339 339 337 336 334 331 329
275 276 277 276 273 271 269 267 267 267 268 269 270 270 270 270 269 268 267 266 265 262 260 258 257 257 259 260 261 263 264 265 267 269 271 273 275 275 276 275 273 273 272 267 264 266 271 276 278 280 279 279 280 281 281 281 282 283 284 284 286 290 295 300 305 310 314 319 322 327 332 335 337 338 338 337 336 335 335 336 336 335 333 332 330
274 276 276 276 276 275 274 272 272 271 271 271 271 271 271 272 272 271 270 268 267 265 263 260 258 257 258 260 262 264 265 267 269 270 271 273 273 272 272 271 269 269 266 260 260 266 271 274 276 278 277 277 277 277 277 278 279 280 281 283 285 288 291 295 300 305 309 314 319 323 327 331 333 334 335 336 336 334 334 334 334 333 332 331 331
274 275 275 276 277 278 278 277 276 274 274 273 273 273 273 273 274 274 272 270 268 267 265 263 260 259 259 260 262 265 267 270 272 273 275 275 274 273 271 269 267 266 260 256 261 268 272 274 275 276 275 274 274 274 274 275 276 277 278 281 283 286 289 291 296 301 305 310 314 318 323 327 329 330 331 333 334 334 334 334 332 331 331 330 330
274 275 276 277 278 279 279 279 278 278 277 277 276 276 276 275 275 274 273 272 271 269 267 265 263 262 262 263 265 266 269 271 272 273 273 273 272 272 270 267 265 263 257 256 263 270 273 274 274 273 272 272 271 271 271 272 273 275 277 279 281 284 287 289 293 298 302 306 310 314 319 323 325 327 328 329 331 332 333 332 331 330 329 328 329
276 277 277 278 279 279 280 280 281 281 280 280 279 278 277 276 275 274 273 272 271 270 269 267 266 266 267 269 271 272 272 272 272 271 270 269 267 267 265 264 264 263 260 263 268 271 272 273 272 270 269 269 268 268 269 270 271 273 275 278 281 284 287 290 294 297 300 303 307 312 316 318 321 325 325 325 327 329 330 330 330 328 326 326 327
277 278 278 279 280 280 281 281 282 282 281 281 280 280 279 279 278 277 276 274 272 271 271 271 272 273 273 273 275 276 275 274 273 271 270 269 266 264 263 263 264 263 264 268 270 271 272 272 269 266 266 266 266 267 267 268 270 272 274 278 281 284 287 290 294 297 300 303 305 308 312 314 318 322 322 321 323 325 326 328 328 324 322 326 329
279 280 280 281 282 282 282 283 283 283 284 283 283 284 283 282 281 280 278 277 276 274 274 274 275 276 276 277 279 279 278 277 276 274 273 271 268 266 265 265 264 265 267 269 269 270 271 270 266 262 263 264 264 265 266 267 268 270 273 276 280 283 286 290 293 296 299 301 303 305 308 311 315 318 318 318 320 321 323 326 325 321 322 328 332
279 280 281 282 283 285 286 286 286 287 287 287 287 287 286 284 283 282 280 279 279 279 279 280 280 281 283 284 285 284 283 282 279 277 275 273 270 267 266 265 263 263 265 267 268 269 270 269 265 261 261 261 262 263 265 266 267 269 272 276 279 282 286 289 292 295 297 299 301 303 306 309 312 314 314 315 316 318 320 323 322 319 322 328 332
278 280 281 282 285 286 286 287 287 287 288 288 288 288 287 286 285 284 284 284 284 285 286 286 287 288 289 290 289 288 287 285 283 281 278 275 273 270 267 264 264 264 265 267 268 268 268 266 263 260 259 259 261 262 264 265 266 269 272 276 279 282 286 289 292 295 297 299 301 302 304 307 309 311 311 312 313 315 318 320 321 320 323 327 330
279 281 282 283 284 285 286 286 287 287 288 289 288 288 288 289 288 289 289 290 290 291 291 291 292 292 293 292 292 289 286 283 281 279 276 274 274 273 271 269 268 268 268 269 270 268 266 263 259 257 257 258 260 262 263 264 266 269 272 276 279 283 286 289 292 295 297 298 299 301 302 305 307 308 309 310 312 313 315 317 318 320 322 326 330
281 282 283 284 285 286 287 288 289 289 289 290 291 292 292 293 294 294 295 295 295 296 296 296 297 297 296 295 294 291 286 283 281 279 276 274 272 272 272 273 272 272 271 271 270 268 265 261 257 255 256 258 259 261 262 264 266 269 273 276 280 283 286 289 293 296 298 298 298 299 301 303 305 306 307 308 309 311 313 315 317 319 322 326 329
280 281 282 284 285 288 290 291 292 293 293 294 295 295 295 296 297 299 299 300 301 301 301 301 301 300 299 298 296 292 288 284 281 280 279 278 276 274 272 272 272 272 272 272 270 267 262 258 254 253 255 258 259 261 262 264 267 270 274 277 280 284 287 290 293 296 297 297 297 297 299 302 303 304 305 306 307 309 311 314 317 320 324 326 328
279 281 284 287 289 291 293 295 296 297 297 298 298 298 299 300 301 301 302 303 304 304 304 304 304 303 302 301 300 296 292 288 282 278 277 277 278 278 277 274 272 271 270 270 269 265 260 255 252 252 255 257 259 260 262 265 268 271 274 278 281 284 287 291 294 295 295 295 296 297 299 300 301 302 303 304 306 307 310 314 317 322 325 327 327
284 286 289 292 293 294 294 295 296 297 297 299 300 301 301 302 303 304 307 309 310 312 314 314 314 313 310 308 305 302 299 295 290 284 281 279 279 280 279 277 273 270 269 268 266 262 257 253 252 253 256 258 260 262 264 266 269 272 275 278 281 284 287 290 292 293 294 294 295 296 297 298 299 300 301 303 304 306 309 312 316 322 326 326 326
290 292 294 294 294 295 295 295 296 297 297 299 300 301 303 307 310 314 318 321 323 325 326 326 326 324 321 317 313 310 306 302 298 293 289 286 283 281 280 278 274 271 269 267 265 261 257 255 255 257 259 261 262 264 266 268 271 274 276 279 282 285 287 289 291 292 293 294 294 294 295 297 297 298 300 301 303 305 306 309 315 322 325 325 325
295 296 296 295 295 296 296 296 297 298 298 299 302 305 309 315 320 325 328 330 332 333 332 331 330 329 326 323 319 314 310 307 303 299 296 292 289 285 282 279 275 271 268 267 266 263 260 259 260 260 262 264 265 267 269 271 273 275 277 280 283 285 287 288 290 291 292 292 292 293 295 297 298 299 299 299 301 303 305 308 314 321 322 322 324
298 297 296 297 298 298 298 299 299 299 301 304 307 311 316 321 326 330 332 333 334 334 332 330 330 328 326 323 320 317 313 310 307 305 303 300 295 290 284 279 275 272 270 269 268 266 265 264 264 264 265 267 269 270 272 273 275 276 279 281 283 284 286 287 289 290 291 292 293 295 296 297 298 298 298 298 300 302 305 308 313 317 320 321 324
300 300 300 301 300 298 299 299 298 299 303 307 310 315 320 323 327 329 330 331 333 333 331 329 327 325 324 322 320 317 315 311 309 308 306 304 300 295 289 283 278 275 273 272 271 270 269 268 267 267 269 270 271 273 274 275 276 277 279 281 282 284 285 286 288 290 291 291 293 295 295 296 297 297 297 297 298 300 303 307 310 314 318 320 323
301 300 300 299 298 298 299 299 300 303 306 309 313 318 321 323 325 326 326 327 329 330 328 326 323 322 322 322 320 317 314 312 309 306 304 301 299 296 291 286 282 278 276 274 272 271 270 270 270 270 272 273 274 275 275 276 277 279 280 282 282 283 284 286 287 289 290 291 293 293 294 294 295 295 295 295 296 297 300 304 309 312 316 320 322
297 297 296 297 298 299 300 301 302 305 307 310 315 317 319 320 321 322 323 324 325 325 324 323 321 319 320 320 319 317 315 312 309 306 303 301 298 294 291 287 284 280 278 276 274 272 272 272 272 273 274 274 275 276 277 278 280 281 282 282 282 282 283 285 287 288 289 289 290 292 292 293 294 295 295 294 294 295 298 302 305 308 312 317 320